Location: Middle Street
(51.7167°N, 0.0333°E)
Time: 19:52:51
(UTC+00:00)

Cosmos 1939 Rocket - Pass Details

Date: 20 January 2021
Orbit: 531 x 585 km, 97.4° (Epoch: 27 February)

Event Time Altitude Azimuth Distance (km) Brightness Sun altitude
Rises 17:40:33 0° 161° (SSE) 2,796 6.4 -11.0°
Reaches altitude 10° 17:42:42 10° 160° (SSE) 1,898 5.5 -11.3°
Maximum altitude 17:46:49 79° 74° (ENE) 596 2.8 -11.9°
Drops below altitude 10° 17:50:55 10° 349° (N) 1,890 5.5 -12.5°
Sets 17:53:04 0° 348° (NNW) 2,784 6.4 -12.8°
